Preview of NWS' New Version of Forecast
This preview is not operational and should not be used for support decisions.

Regional Weather Roundup (RWR)

Issued by Gray - Portland, ME (GYX)

                            
000
ASUS41 KGYX 160505
RWRGYX
WEATHER ROUNDUP FOR MAINE AND NEW HAMPSHIRE
NATIONAL WEATHER SERVICE GRAY ME
100 AM EDT TUE OCT 16 2018

MEZ002-005-006-010-012-015-018-020-021-024-026-027-029-160600-
MAINE
  
CITY           SKY/WX    TMP DP  RH WIND       PRES   REMARKS
PORTLAND       LGT RAIN  58  54  86 W15G24    29.65S                  
SANFORD        LGT RAIN  56  54  93 W6        29.69R                  
BAR HARBOR     RAIN      61  60  97 SW12G23   29.55F FOG              
WISCASSET      RAIN      60  59  96 W9        29.62R                  
ROCKLAND       LGT RAIN  60  59  96 SW15      29.58F                  
FRYEBURG       FAIR      54  48  80 W8G16     29.65S                  
LEWISTONAUBURN FAIR      56  54  93 W5        29.63R                  
AUGUSTA        LGT RAIN  56  54  93 W6        29.60F                  
BANGOR         LGT RAIN  57  53  86 W12G28    29.56S FOG              
GREENVILLE       N/A     48  47  96 NW13G21   29.53S                  
MILLINOCKET    CLOUDY    54  52  93 VRB3      29.51F                  
HOULTON        CLOUDY    56  55  97 SW13G22   29.47F                  
PRESQUE ISLE   LGT RAIN  55  51  86 SW20G26   29.44F                  
FRENCHVILLE    MOCLDY    53  47  79 SW15G23   29.39F                  
CARIBOU        CLOUDY    54  51  90 SW10      29.43F                  
$$

NHZ002-005-008-009-011-012-014-160600-
NEW HAMPSHIRE
  
CITY           SKY/WX    TMP DP  RH WIND       PRES   REMARKS
ROCHESTER      LGT RAIN  56  52  86 VRB7G20   29.69R                  
NASHUA         LGT RAIN  56  51  84 W15G23    29.77R                  
MANCHESTER     LGT RAIN  57  50  77 W15G22    29.74R                  
CONCORD        MOCLDY    55  49  80 W10G22    29.74R                  
LACONIA        CLOUDY    55  47  74 W14G25    29.72S                  
PLYMOUTH       FAIR      54  43  67 W22G37    29.72R                  
BERLIN         LGT RAIN  49  43  80 W12G22    29.68R                  
WHITEFIELD     LGT RAIN  49  44  83 W9G22     29.70R                  
JAFFREY        CLOUDY    53 N/A N/A NW8G21    29.81R                  
KEENE          CLOUDY    55  45  68 W16G25    29.83R                  
LEBANON        MOCLDY    53  39  59 W7G18     29.79R                  
MT WASHINGTON  FRZ RAIN  32  32 100 W81G91      N/A  VSB 0   WCI  11  
$$

VTZ005-007-008-160600-
VERMONT
  
CITY           SKY/WX    TMP DP  RH WIND       PRES   REMARKS
ST JOHNSBURY     N/A     49  38  65 MISG      29.73R                  
MONTPELIER     FAIR      47  31  53 W12G35    29.81R                  
BURLINGTON     CLOUDY    46  33  60 W12G32    29.87R                  
$$

MAZ007-012-024-CTZ003-RIZ002-NYZ038-NYZ072-160600-
SOUTHERN NEW ENGLAND AND NY
  
CITY           SKY/WX    TMP DP  RH WIND       PRES   REMARKS
BOSTON         LGT RAIN  60  52  74 W22G31    29.75R                  
WORCESTER      RAIN      52  49  89 W29G39    29.81R                  
NANTUCKET      CLOUDY    67  65  93 SW28G37   29.78F                  
PROVIDENCE     MOCLDY    68  63  84 W17G25    29.75R                  
HARTFORD       LGT RAIN  56  52  86 NW14G28   29.86R                  
ALBANY         CLOUDY    52  40  63 W16G29    29.97R                  
NEW YORK CITY  LGT RAIN  63  54  72 W21G29    29.91R                  
$$

ANZ081-ANZ082-ANZ150-NHZ014-MEZ023>029-160600-
COASTAL MARINE OBSERVATIONS
  
STATION/POSITION TIME  TEMP    WIND        PRES    WAVE
                       AIR SEA DIR/SP/G            HT/PER
                 (UTC) (F)     (DEG/KT/KT) (MB)    (FT/S)
MOUNT DESERT ROC 0500   59     200/ 30/ 33 1000.7F
MATINICUS ROCK   0400   59     220/ 31/ 34 1001.9F
ISLE OF SHOALS   0400   64     230/ 22/ 25 1003.1F
JEFFREYS LEDGE   0406      57                N/A     5/ 6
$$

.............KEY..............
   WCI - WIND CHILL
   TC  - TEMPERATURE IN CELSIUS
   VSB - VISIBILITY IN MILES
   HX  - HEAT INDEX
   FAIR- INDICATES FEW OR NO CLOUDS BELOW 12,000 FT, WITH NO 
         SIGNIFICANT WEATHER AND/OR OBSTRUCTIONS TO VISIBILITY.